AMC-3 (GE-3)            
1 24936U 97050A   19265.11368705 -.00000266  00000-0  00000+0 0  9993
2 24936   2.1782  87.6940 0002951 107.7330 134.2113  1.00271661 80779
ATLAS 2AS CENTAUR R/B   
1 24937U 97050B   19263.28172745  .00001309  00000-0  73453-3 0  9991
2 24937  18.2058 145.3004 7380104  93.0772 345.0773  2.14075522161183